Total_Precipitation_Accumulation
0.00 0.00 0.00 0.00 0.00 0.00 0.00 0.01 0.02 0.02 0.02 0.02 0.05 0.11 0.17 0.21 0.25 0.35 0.43 0.50 0.61 0.78 1.13 1.45 1.52 1.57 1.80 2.02 2.19 2.11 2.17 2.37 2.52 2.76 2.77 2.91 3.24 3.61 3.81 4.00 4.12 4.11 4.04 4.03
0.00 0.00 0.00 0.00 0.00 0.00 0.00 0.00 0.01 0.03 0.04 0.04 0.08 0.18 0.25 0.28 0.29 0.37 0.50 0.56 0.57 0.70 0.98 1.39 1.50 1.65 1.85 2.02 2.22 2.33 2.40 2.73 3.19 3.60 3.99 4.34 4.61 4.59 4.74 4.78 4.75 4.59 4.46 4.35
0.00 0.00 0.00 0.00 0.00 0.00 0.00 0.00 0.01 0.03 0.06 0.09 0.13 0.28 0.36 0.39 0.45 0.50 0.57 0.62 0.69 0.82 1.00 1.17 1.38 1.63 1.86 2.03 2.27 2.44 2.70 3.31 4.10 4.47 4.76 5.28 5.57 5.37 5.16 4.93 4.83 4.73 4.71 4.70
0.00 0.00 0.00 0.00 0.00 0.00 0.00 0.01 0.01 0.03 0.05 0.11 0.14 0.34 0.54 0.59 0.66 0.61 0.70 0.83 0.95 0.99 1.07 1.22 1.41 1.67 1.98 2.28 2.39 2.55 3.01 3.73 4.37 4.82 5.36 5.88 6.10 6.10 5.93 5.44 4.99 4.54 4.20 4.01
0.00 0.00 0.01 0.01 0.01 0.00 0.01 0.01 0.01 0.04 0.05 0.09 0.12 0.29 0.64 0.83 0.89 0.87 0.93 0.94 0.97 1.00 1.11 1.25 1.39 1.59 1.79 2.07 2.47 2.71 3.19 3.84 4.50 5.17 5.82 6.18 6.38 6.34 5.91 5.12 4.37 3.91 3.61 3.33
0.00 0.00 0.01 0.01 0.01 0.01 0.01 0.01 0.02 0.04 0.06 0.11 0.11 0.25 0.70 1.04 1.21 1.23 1.14 1.09 1.05 0.99 1.03 1.13 1.31 1.40 1.68 1.96 2.24 2.64 2.93 3.53 4.19 4.75 5.24 5.37 5.51 5.44 5.01 4.54 4.04 3.64 3.19 2.70
0.01 0.01 0.01 0.01 0.01 0.01 0.01 0.02 0.08 0.16 0.19 0.19 0.15 0.32 0.77 1.10 1.13 1.08 1.11 1.19 1.15 1.00 1.04 1.22 1.45 1.37 1.58 1.83 2.13 2.50 2.89 3.27 3.75 4.22 4.64 4.87 4.99 4.81 4.36 3.91 3.51 3.06 2.58 2.17
0.06 0.04 0.03 0.01 0.02 0.02 0.01 0.03 0.15 0.26 0.30 0.32 0.33 0.58 0.98 1.06 0.99 0.94 0.94 0.99 1.08 1.08 1.05 1.10 1.24 1.30 1.50 1.68 1.94 2.28 2.59 2.89 3.07 3.24 3.55 3.77 3.92 3.78 3.45 2.98 2.52 2.22 1.96 1.70
0.13 0.12 0.05 0.02 0.02 0.02 0.03 0.05 0.11 0.13 0.17 0.34 0.64 0.90 1.24 1.21 1.09 1.00 0.91 0.90 0.95 0.92 0.90 0.96 1.08 1.20 1.40 1.67 1.89 2.14 2.27 2.41 2.55 2.64 2.68 2.72 2.81 2.71 2.48 2.20 1.91 1.64 1.39 1.19
0.13 0.18 0.08 0.03 0.03 0.03 0.04 0.06 0.08 0.13 0.29 0.47 0.74 1.16 1.47 1.60 1.49 1.32 1.06 0.96 0.89 0.94 0.95 0.97 1.03 1.12 1.21 1.30 1.54 1.76 1.84 1.90 1.95 1.97 1.99 1.99 1.97 1.90 1.81 1.64 1.44 1.21 1.06 0.91
0.15 0.21 0.13 0.06 0.06 0.07 0.06 0.08 0.10 0.15 0.21 0.43 0.79 1.36 1.61 1.87 1.92 1.71 1.37 1.19 1.13 1.13 1.08 1.03 1.04 1.03 1.05 1.06 1.19 1.39 1.53 1.52 1.56 1.61 1.56 1.47 1.50 1.45 1.36 1.29 1.20 1.06 0.96 0.85
0.17 0.22 0.21 0.13 0.10 0.08 0.08 0.11 0.16 0.25 0.27 0.30 0.67 1.52 1.91 2.04 1.98 1.70 1.50 1.34 1.28 1.21 1.08 1.00 0.93 0.85 0.85 0.90 0.94 1.02 1.15 1.17 1.17 1.17 1.17 1.19 1.19 1.18 1.12 1.02 0.92 0.79 0.71 0.66
0.13 0.26 0.45 0.45 0.34 0.18 0.12 0.13 0.16 0.18 0.25 0.37 0.72 1.71 2.26 2.21 2.06 1.77 1.57 1.53 1.52 1.40 1.21 1.08 0.94 0.80 0.78 0.82 0.85 0.89 0.95 1.00 1.02 0.95 0.95 1.00 0.99 0.97 0.91 0.81 0.77 0.69 0.59 0.54
0.10 0.25 0.56 0.97 0.76 0.44 0.25 0.17 0.19 0.23 0.38 0.52 0.75 1.24 1.56 1.68 1.76 1.78 1.86 1.91 1.76 1.52 1.32 1.12 1.01 0.89 0.84 0.87 0.83 0.83 0.84 0.82 0.84 0.82 0.82 0.88 0.85 0.83 0.79 0.69 0.60 0.55 0.51 0.50
0.16 0.31 0.32 0.38 0.38 0.38 0.35 0.26 0.24 0.28 0.35 0.62 0.91 1.25 1.55 1.62 1.64 1.68 1.83 1.75 1.54 1.38 1.23 1.10 1.04 1.05 0.97 0.88 0.81 0.78 0.83 0.79 0.80 0.82 0.79 0.78 0.72 0.69 0.68 0.65 0.58 0.51 0.46 0.43
0.18 0.30 0.31 0.37 0.33 0.41 0.37 0.33 0.32 0.38 0.46 0.68 1.02 1.44 1.65 1.66 1.61 1.66 1.73 1.66 1.50 1.28 1.14 1.07 1.04 1.09 1.01 0.91 0.80 0.74 0.78 0.81 0.83 0.84 0.78 0.75 0.71 0.68 0.64 0.61 0.58 0.53 0.45 0.38
0.24 0.38 0.50 0.53 0.37 0.53 0.74 0.56 0.53 0.57 0.60 0.80 1.18 1.40 1.46 1.54 1.54 1.59 1.67 1.74 1.63 1.39 1.29 1.28 1.31 1.30 1.18 1.04 0.91 0.85 0.85 0.87 0.88 0.91 0.86 0.82 0.75 0.67 0.62 0.54 0.49 0.49 0.48 0.40
0.24 0.38 0.49 0.51 0.62 1.01 0.94 0.52 0.55 0.64 0.67 0.72 0.84 0.99 1.14 1.25 1.30 1.44 1.61 1.74 1.70 1.60 1.55 1.56 1.52 1.39 1.27 1.14 1.06 0.97 0.90 0.94 0.98 0.93 0.86 0.77 0.67 0.58 0.55 0.54 0.50 0.45 0.43 0.40
0.14 0.33 0.52 0.66 0.92 1.11 0.92 0.56 0.49 0.72 0.85 0.68 0.71 0.73 0.75 0.78 0.92 1.28 1.46 1.53 1.56 1.60 1.56 1.45 1.36 1.28 1.21 1.11 1.03 0.95 0.89 0.85 0.85 0.80 0.73 0.65 0.61 0.58 0.56 0.55 0.55 0.50 0.44 0.40
0.13 0.24 0.55 0.73 0.98 1.25 1.09 0.51 0.31 0.59 1.15 0.82 0.71 0.70 0.72 0.81 0.98 1.08 1.10 1.11 1.16 1.21 1.23 1.22 1.17 1.10 1.04 0.95 0.85 0.79 0.75 0.71 0.68 0.65 0.63 0.55 0.53 0.55 0.57 0.52 0.51 0.47 0.43 0.41
0.40 0.43 0.58 0.72 0.93 1.11 0.60 0.32 0.43 1.01 1.33 0.90 0.75 0.72 0.78 0.89 0.86 0.71 0.70 0.80 0.92 0.99 1.03 1.03 1.04 1.04 0.91 0.75 0.68 0.69 0.66 0.60 0.49 0.45 0.50 0.52 0.51 0.51 0.50 0.49 0.50 0.48 0.45 0.43
0.49 0.61 0.65 0.74 1.03 1.17 0.46 0.35 0.69 0.83 0.65 0.63 0.63 0.61 0.60 0.57 0.48 0.50 0.55 0.60 0.65 0.76 0.88 0.86 0.82 0.77 0.69 0.63 0.64 0.67 0.64 0.50 0.40 0.42 0.51 0.55 0.51 0.43 0.44 0.50 0.52 0.49 0.45 0.42
0.41 0.48 0.60 0.76 0.95 0.71 0.32 0.32 0.38 0.36 0.43 0.44 0.43 0.42 0.36 0.36 0.36 0.38 0.46 0.51 0.55 0.59 0.68 0.70 0.67 0.64 0.64 0.64 0.67 0.64 0.57 0.48 0.44 0.47 0.52 0.54 0.49 0.44 0.44 0.48 0.50 0.50 0.46 0.39
0.38 0.26 0.33 0.51 0.55 0.35 0.24 0.20 0.19 0.21 0.27 0.29 0.34 0.42 0.36 0.35 0.34 0.34 0.38 0.46 0.53 0.55 0.56 0.57 0.58 0.58 0.62 0.60 0.59 0.56 0.48 0.47 0.50 0.52 0.51 0.51 0.51 0.49 0.43 0.40 0.39 0.41 0.40 0.36
0.33 0.29 0.37 0.45 0.38 0.29 0.25 0.18 0.12 0.14 0.18 0.21 0.31 0.42 0.42 0.38 0.40 0.37 0.38 0.43 0.49 0.53 0.55 0.56 0.56 0.57 0.53 0.50 0.47 0.44 0.42 0.44 0.49 0.49 0.46 0.45 0.46 0.45 0.42 0.34 0.30 0.29 0.25 0.19
0.24 0.27 0.38 0.41 0.29 0.28 0.25 0.17 0.12 0.18 0.23 0.26 0.33 0.42 0.38 0.34 0.37 0.37 0.41 0.42 0.44 0.47 0.49 0.52 0.48 0.47 0.45 0.39 0.39 0.38 0.36 0.36 0.44 0.45 0.40 0.36 0.36 0.36 0.31 0.29 0.26 0.19 0.13 0.10